Regional Weather Roundup
Issued by NWS

Home | Current Version | Previous Version | Graphics & Text | Print | Product List | Glossary On
Versions: 1 2 3 4 5 6 7 8 9 10 11 12 13 14 15 16 17 18 19 20 21 22 23 24 25 26 27 28 29 30 31 32 33 34 35 36 37 38 39 40 41 42 43 44 45 46 47 48 49 50
000
ASUS45 KCYS 190010
RWRWY

WYOMING REGIONAL WEATHER ROUNDUP
NATIONAL WEATHER SERVICE CHEYENNE WY
600 PM MDT WED APR 18 2018

NOTE:  "FAIR" INDICATES FEW OR NO CLOUDS BELOW 12,000 FEET
WITH NO SIGNIFICANT WEATHER AND/OR OBSTRUCTIONS TO VISIBILITY.

WYZ001-190100-
YELLOWSTONE NATIONAL PARK

CITY           SKY/WX    TMP DP  RH WIND       PRES   REMARKS
LK YELLOWSTONE   N/A     34  13  41 E3        30.17F
6HR MIN TEMP:  29; 6HR MAX TEMP:  38; 6HR PCP:  0.01;

W YELLOWSTONE  NOT AVBL

$$
WYZ002>013-054>058-071-098>099-190100-
NORTHERN WYOMING

CITY           SKY/WX    TMP DP  RH WIND       PRES   REMARKS
JACKSON        FAIR      44   7  21 W3        30.13F
CODY           FAIR      50  18  28 SE14      30.14F
GREYBULL       FAIR      52  19  27 E7        30.16F
6HR MIN TEMP:  46; 6HR MAX TEMP:  53;

WORLAND        FAIR      52  19  27 E10       30.14F
6HR MIN TEMP:  46; 6HR MAX TEMP:  54;

SHERIDAN       CLOUDY    50  21  32 E6        30.20S
6HR MIN TEMP:  49; 6HR MAX TEMP:  54;

BUFFALO        FAIR      50  20  30 VRB5      30.21S
6HR MIN TEMP:  45; 6HR MAX TEMP:  51;

GILLETTE       CLOUDY    52  21  29 NE6       30.20S
6HR MIN TEMP:  45; 6HR MAX TEMP:  53;

HULETT         CLOUDY    50  21  32 N8G16     30.22S
NEWCASTLE      MOCLDY    52  18  25 NW14      30.21S

$$
WYZ014>020-022>026-101>103-190100-
CENTRAL WYOMING

CITY           SKY/WX    TMP DP  RH WIND       PRES   REMARKS
BIG PINEY      FAIR      46   2  16 VRB5G17   30.13F
6HR MIN TEMP:  37; 6HR MAX TEMP:  49;

PINEDALE       FAIR      45   0  15 S8        30.14S
DUBOIS         FAIR      43   0  16 W12       30.12S
LANDER         FAIR      52  15  23 CALM      30.09F
6HR MIN TEMP:  43; 6HR MAX TEMP:  54;

RIVERTON       FAIR      53  15  22 NE10      30.11F
6HR MIN TEMP:  42; 6HR MAX TEMP:  54;

CASPER         FAIR      49  19  30 E9        30.19F
6HR MIN TEMP:  39; 6HR MAX TEMP:  49;

DOUGLAS        FAIR      51  18  27 NW6       30.22S
6HR MIN TEMP:  45; 6HR MAX TEMP:  52;


$$
WYZ021-027>030-104>119-190100-
SOUTHERN WYOMING

CITY           SKY/WX    TMP DP  RH WIND       PRES   REMARKS
EVANSTON       FAIR      49  10  20 S12       30.08F
6HR MIN TEMP:  39; 6HR MAX TEMP:  51;

KEMMERER       FAIR      46   0  14 CALM      30.11F
FORT BRIDGER   FAIR      49   4  15 E5        30.13F
ROCK SPRINGS   FAIR      49   4  16 SE12G17   30.12F
6HR MIN TEMP:  40; 6HR MAX TEMP:  50;

DIXON          FAIR      50  14  24 CALM      30.19F
RAWLINS        FAIR      47  10  22 VRB3      30.18F
6HR MIN TEMP:  39; 6HR MAX TEMP:  49;

SARATOGA       FAIR      46   3  17 CALM      30.18F
LARAMIE        FAIR      45   9  23 N8        30.19F
6HR MIN TEMP:  38; 6HR MAX TEMP:  47;

CHEYENNE       FAIR      50   8  18 N12G17    30.21R
6HR MIN TEMP:  43; 6HR MAX TEMP:  50;

TORRINGTON     FAIR      54  20  26 NW13G18   30.20S
6HR MIN TEMP:  48; 6HR MAX TEMP:  55;

PINE BLUFFS    FAIR      50  16  25 N9G16     30.22S

$$



USA.gov is the U.S. government's official web portal to all federal, state and local government web resources and services.